Skip Page Navigation
NASA JPL Caltech
NASA Logo - Jet Propulsion Laboratory + View the NASA Portal
+ Near-Earth Object (NEO) Program
Search JPL
JPL Home Earth Solar System Stars & Galaxies Technology
JPL Solar System Dynamics
BODIES ORBITS EPHEMERIDES TOOLS PHYSICAL DATA DISCOVERY FAQ SITE MAP
JPL Small-Body Database Browser
Search: [ help ]  
161996 (1985 RH3)
Classification: Main-belt Asteroid          SPK-ID: 2161996
Ephemeris | Orbit Diagram | Orbital Elements | Physical Parameters | Discovery Circumstances | Close-Approach Data ]

[ show orbit diagram ]
Orbital Elements at Epoch 2457400.5 (2016-Jan-13.0) TDB
Reference: JPL 8 (heliocentric ecliptic J2000)
 Element Value Uncertainty (1-sigma)   Units 
e .3260895185068738 9.2842e-08  
a 2.676524618788921 3.4225e-08 au
q 1.803737994576248 2.4815e-07 au
i 8.502834934308678 9.921e-06 deg
node 10.65392947085695 4.8831e-05 deg
peri 357.4225522641013 5.1224e-05 deg
M 321.6384907646172 1.9528e-05 deg
tp 2457570.930953897302
(2016-Jul-01.43095390)
8.967e-05 JED
period 1599.393366578956
4.38
3.0677e-05
8.399e-08
d
yr
n .2250853401812131 4.3172e-09 deg/d
Q 3.549311243001594 4.5385e-08 au
  Orbit Determination Parameters
   # obs. used (total)      321  
   data-arc span      10881 days (29.79 yr)  
   first obs. used      1985-09-06  
   last obs. used      2015-06-22  
   planetary ephem.      DE431  
   SB-pert. ephem.      SB431-BIG16  
   condition code      0  
   fit RMS      .56355  
   data source      ORB  
   producer      Otto Matic  
   solution date      2015-Jul-06 15:19:39  

Additional Information
 Earth MOID = .801225 au 
 Jupiter MOID = 1.90639 au 
 T_jup = 3.285 
[ show covariance matrix ]

Ephemeris | Orbit Diagram | Orbital Elements | Physical Parameters | Discovery Circumstances | Close-Approach Data ]

Physical Parameter Table
Parameter Symbol Value Units Sigma Reference Notes
absolute magnitude H 15.8 mag n/a MPO254167  

161996 (1985 RH3)          Discovered 1985-Sep-06 by Debehogne, H. at La Silla
Reference: 20070926/Numbers.arcLast Updated: 2007-09-30

[ show close-approach data ]
Alternate Designations
 1985 RH3 = 2004 BN16 
Ephemeris | Orbit Diagram | Orbital Elements | Physical Parameters | Discovery Circumstances | Close-Approach Data ]
ABOUT SSD CREDITS/AWARDS PRIVACY/COPYRIGHT GLOSSARY LINKS
FirstGov 2016-Feb-12 20:30 UT
(server date/time)  
NASA Home Page
Site Manager:   Ryan S. Park
Webmaster  Alan B. Chamberlin